Regional Weather Roundup
Issued by NWS

Home | Current Version | Previous Version | Text Only | Print | Product List | Glossary Off
Versions: 1 2 3 4 5 6 7 8 9 10 11 12 13 14 15 16 17 18 19 20 21 22 23 24 25 26 27 28 29 30 31 32 33 34 35 36 37 38 39 40 41 42 43 44 45 46 47 48 49 50

000
ASUS43 KOAX 250102
RWRNE

WEATHER ROUNDUP FOR NEBRASKA
NATIONAL WEATHER SERVICE OMAHA NE
800 PM CDT TUE APR 24 2018

NOTES: SATELLITE DATA IS BEING USED TO AUGMENT CLOUD COVER ABOVE
       12000 FEET.
       "FAIR" INDICATES FEW OR NO CLOUDS BELOW 12,000 FEET WITH NO
       SIGNIFICANT WEATHER AND/OR OBSTRUCTIONS TO VISIBILITY.


NEZ001>004-019>022-054>056-250200-
NEBRASKA PANHANDLE

CITY           SKY/WX    TMP DP  RH WIND       PRES   REMARKS
SCOTTSBLUFF    CLOUDY    41  32  70 NE13      30.41S
ALLIANCE       CLOUDY    37  29  72 N12       30.39S WCI  29
CHADRON        PTCLDY    45  25  45 NE9       30.41F
GORDON         CLOUDY    40  29  64 N12       30.39F WCI  34
KIMBALL        CLOUDY    39  29  68 N13       30.39S WCI  31
SIDNEY         CLOUDY    39  30  70 N17       30.39S WCI  30
$$

NEZ057>060-069>072-079>082-250200-
SOUTHWEST NEBRASKA

CITY           SKY/WX    TMP DP  RH WIND       PRES   REMARKS
NORTH PLATTE   CLOUDY    39  34  82 N22G30    30.35F WCI  29
IMPERIAL       CLOUDY    40  33  76 N22G33    30.37R WCI  30
LEXINGTON      CLOUDY    41  37  83 N22G30    30.31S
MCCOOK         CLOUDY    41  36  82 N23G32    30.32F
OGALLALA       CLOUDY    41  32  70 N17G26    30.38R
$$

NEZ005>010-023>029-035>040-094-250200-
NORTH CENTRAL NEBRASKA

CITY           SKY/WX    TMP DP  RH WIND       PRES   REMARKS
VALENTINE      CLOUDY    38  35  89 NW13      30.38S WCI  30
AINSWORTH      LGT RAIN  37  36  97 N16       30.36S WCI  27
BROKEN BOW     LGT RAIN  39  36  89 NW23      30.31S WCI  28
O`NEILL        CLOUDY    42  41  95 N17G23    30.32R
ORD            CLOUDY    42  40  92 N20G28    30.28S
THEDFORD       LGT RAIN  37  35  93 N15       30.37F WCI  27
$$

NEZ041-046>049-061>064-073>077-083>087-250200-
SOUTH CENTRAL NEBRASKA

CITY           SKY/WX    TMP DP  RH WIND       PRES   REMARKS
GRAND ISLAND   CLOUDY    45  43  93 N21G28    30.24R FOG
AURORA         CLOUDY    46  46  97 N21G29    30.22R
HASTINGS       CLOUDY    44  43  96 N22       30.23S
HEBRON         CLOUDY    48  45  88 NW7       30.22S
HOLDREGE       CLOUDY    41  39  93 N16G26    30.28R
KEARNEY        CLOUDY    43  40  89 N21G28    30.26S
YORK             N/A     48  48 100 N6        30.21S
$$

NEZ011>018-030>034-042>045-250200-
NORTHEAST NEBRASKA

CITY           SKY/WX    TMP DP  RH WIND       PRES   REMARKS
NORFOLK        LGT RAIN  45  44  97 N17       30.22R FOG
ALBION         CLOUDY    45  43  95 N14G21    30.25S FOG
BLAIR          LGT RAIN  53  51  92 N9        30.19S
COLUMBUS       LGT RAIN  49  47  93 N8        30.22S
FREMONT        DRIZZLE   52  51  95 NW5       30.21S
TEKAMAH        LGT RAIN  51  48  89 N14       30.20R
WAYNE          LGT RAIN  47  46  97 N14G20    30.24S
$$

NEZ050>053-065>068-078-088>093-250200-
SOUTHEAST NEBRASKA

CITY           SKY/WX    TMP DP  RH WIND       PRES   REMARKS
LINCOLN        LGT RAIN  51  48  89 N8        30.21S
OMAHA EPPLEY   LGT RAIN  54  51  90 NW12      30.18R
BEATRICE       CLOUDY    52  51  95 NW10      30.19F
FALLS CITY     LGT RAIN  58  47  66 NW18G30   30.16R
NEBRASKA CITY  DRIZZLE   54  51  92 NW13      30.19R
PLATTSMOUTH    DRIZZLE   53  51  93 NW12      30.18S
$$

NEZ044-045-051>053-067-250200-
OMAHA AREA

CITY           SKY/WX    TMP DP  RH WIND       PRES   REMARKS
OMAHA EPPLEY   LGT RAIN  54  51  90 NW12      30.18R
BLAIR          LGT RAIN  53  51  92 N9        30.19S
FREMONT        DRIZZLE   52  51  95 NW5       30.21S
MILLARD        LGT RAIN  55  52  92 NW7       30.19S
OFFUTT AFB     LGT RAIN  54  51  91 NW10      30.17R
PLATTSMOUTH    DRIZZLE   53  51  93 NW12      30.18S
WAHOO          RAIN      51  49  90 N8        30.20S
$$




USA.gov is the U.S. government's official web portal to all federal, state and local government web resources and services.